Location: Riverton
(43.0250°N, 108.3790°W)
Time: 13:52:12
(UTC-06:00)

Amateur Radio Satellites - All Passes

Search period start: 20 September 2017 13:22
Search period end: 21 September 2017 13:22
Location: Riverton, 43.0250°N, 108.3790°W

Satellite Date Start Highest point End Downlink Frequencies (MHz)
Time Altitude Azimuth
POLYITAN 1 20 Sep 13:25:17 13:28:09 18° 268° (W) 13:31:02 437.675
EO-79 20 Sep 13:31:04 13:33:36 15° 269° (W) 13:36:08 145.935-145.965
Oscar 19 20 Sep 13:35:45 13:40:52 62° 72° (ENE) 13:46:01 437.125/150
DX 1 20 Sep 13:43:51 13:46:21 15° 92° (E) 13:48:50 434.975-435.025
YUBILEINY 20 Sep 13:44:11 13:52:55 80° 278° (W) 14:01:40 435.215
QB50P2 20 Sep 13:45:34 13:46:03 10° 271° (W) 13:46:32 145.880/145.840
NO-84 20 Sep 13:55:12 13:57:59 19° 129° (SE) 14:00:38 435.350 FM
VELOX 1 20 Sep 13:57:56 14:02:21 81° 103° (ESE) 14:06:44 145.980
AO-7 20 Sep 14:01:43 14:08:07 26° 52° (NE) 14:14:30 .
BUGSAT 1 20 Sep 14:06:31 14:09:55 26° 264° (W) 14:13:21 437.445
O/OREOS (USA 219) 20 Sep 14:23:09 14:27:02 27° 257° (WSW) 14:30:55 437.305
SPROUT 20 Sep 14:25:36 14:29:32 36° 290° (WNW) 14:33:27 437.525
50 SAT 20 Sep 14:29:03 14:32:21 65° 102° (ESE) 14:35:38 437.505
Gurwin Techsat 1B 20 Sep 14:30:51 14:36:06 63° 258° (WSW) 14:41:24 435.225
SO-50 20 Sep 14:32:39 14:35:40 18° 111° (ESE) 14:38:41 436.795
ITAMSAT 1 20 Sep 14:34:56 14:38:09 17° 60° (ENE) 14:41:23 435.822/435.867
Oscar 19 20 Sep 15:17:17 15:20:36 17° 269° (W) 15:23:55 437.125/150
DX 1 20 Sep 15:18:37 15:22:49 51° 288° (WNW) 15:27:01 434.975-435.025
UKube-1 20 Sep 15:19:10 15:23:29 78° 285° (WNW) 15:27:46 .
RS-15 20 Sep 15:29:17 15:41:24 86° 56° (ENE) 15:52:49 29.354- 29.394
NO-84 20 Sep 15:31:32 15:35:11 53° 324° (NW) 15:38:32 435.350 FM
PCSat 20 Sep 15:36:39 15:41:43 42° 112° (ESE) 15:46:49 145.827
VELOX 1 20 Sep 15:36:51 15:38:07 11° 300° (WNW) 15:39:24 145.980
ITUPSAT 1 20 Sep 15:45:21 15:49:15 24° 94° (E) 15:53:07 437.325
YUBILEINY 20 Sep 15:45:50 15:51:15 18° 301° (WNW) 15:56:43 435.215
MOZHAYETS 4 20 Sep 15:49:59 15:53:57 27° 95° (E) 15:57:51
AO-7 20 Sep 15:51:38 16:00:00 83° 253° (WSW) 16:08:23 .
SO-50 20 Sep 16:11:18 16:15:43 54° 308° (NW) 16:20:08 436.795
ITAMSAT 1 20 Sep 16:11:54 16:17:03 69° 257° (WSW) 16:22:14 435.822/435.867
DOVE 4 20 Sep 16:15:22 16:16:39 11° 62° (ENE) 16:17:54 437.250
BEESAT 20 Sep 16:23:53 16:28:38 59° 101° (E) 16:33:21 436.000
HO-68 20 Sep 17:10:53 17:12:04 10° 45° (NE) 17:13:15 435.675
NO-84 20 Sep 17:11:10 17:13:07 14° 342° (NNW) 17:15:01 435.350 FM
PCSat 20 Sep 17:20:23 17:25:13 32° 311° (NW) 17:30:05 145.827
ITUPSAT 1 20 Sep 17:22:42 17:27:10 39° 291° (WNW) 17:31:37 437.325
MOZHAYETS 4 20 Sep 17:26:57 17:31:05 32° 292° (WNW) 17:35:11
XW-2C 20 Sep 17:26:58 17:29:20 16° 65° (ENE) 17:31:42 145.795 - 145.815
LilacSat-2 20 Sep 17:34:25 17:37:18 20° 67° (ENE) 17:40:12 437.200
CUTE-I 20 Sep 17:35:56 17:40:09 25° 64° (ENE) 17:44:23 437.470
RS-15 20 Sep 17:43:18 17:52:15 26° 259° (W) 18:00:54 29.354- 29.394
CUBESAT XI-V 20 Sep 17:43:27 17:48:07 86° 101° (ESE) 17:52:44 437.345
NUDT-PHONESAT 20 Sep 17:43:37 17:46:05 17° 66° (ENE) 17:48:34 437.300
AO-7 20 Sep 17:48:58 17:53:54 17° 271° (W) 17:58:53 .
DOVE 4 20 Sep 17:49:16 17:53:47 78° 256° (WSW) 17:58:07 437.250
SO-50 20 Sep 17:55:52 17:57:11 11° 329° (NNW) 17:58:30 436.795
BEESAT 20 Sep 18:02:50 18:05:56 17° 298° (WNW) 18:09:02 436.000
KAITUO 1B 20 Sep 18:05:26 18:08:48 31° 70° (ENE) 18:12:11 145.475/437.950
KKS-1 20 Sep 18:11:47 18:16:11 59° 101° (E) 18:20:34 437.445
CUTE 1.7 + AOD 2 20 Sep 18:19:34 18:21:50 14° 63° (ENE) 18:24:07 437.475
XW-2D 20 Sep 18:25:53 18:29:43 79° 76° (ENE) 18:33:35 145.860 - 145.880
XW-2B 20 Sep 18:38:08 18:41:57 77° 258° (WSW) 18:45:50 145.730 - 145.750
XW-2F 20 Sep 18:40:58 18:44:47 75° 258° (WSW) 18:48:38 145.980 - 146.000
STARS 20 Sep 18:46:00 18:50:20 56° 101° (E) 18:54:39 437.465
HO-68 20 Sep 18:51:19 18:58:08 50° 66° (ENE) 19:04:59 435.675
NO-84 20 Sep 18:51:30 18:51:40 10° 4° (N) 18:51:50 435.350 FM
XW-2A 20 Sep 18:53:42 18:54:18 10° 64° (ENE) 18:54:56 145.665 - 145.685
XW-2C 20 Sep 18:59:32 19:03:10 40° 262° (W) 19:06:51 145.795 - 145.815
LilacSat-2 20 Sep 19:07:55 19:11:22 31° 264° (W) 19:14:52 437.200
CUTE-I 20 Sep 19:14:49 19:19:55 46° 261° (W) 19:25:02 437.470
NUDT-PHONESAT 20 Sep 19:16:13 19:19:40 35° 263° (W) 19:23:10 437.300
AO-73 20 Sep 19:23:01 19:24:10 11° 60° (ENE) 19:25:21 145.935
ZACube-1 20 Sep 19:23:02 19:24:50 12° 61° (ENE) 19:26:39 437.345
CUBESAT XI-V 20 Sep 19:23:15 19:24:46 12° 301° (WNW) 19:26:18 437.345
STRAND 1 20 Sep 19:29:04 19:31:51 15° 90° (E) 19:34:37 437.568
SEEDS 20 Sep 19:31:41 19:35:46 49° 73° (ENE) 19:39:54 437.485
KAITUO 1B 20 Sep 19:40:06 19:42:50 19° 267° (W) 19:45:36 145.475/437.950
CUBEBUG 2 20 Sep 19:47:01 19:51:10 64° 74° (ENE) 19:55:29 437.445
KKS-1 20 Sep 19:49:44 19:52:16 15° 298° (WNW) 19:54:48 437.445
CUTE 1.7 + AOD 2 20 Sep 19:52:57 19:57:10 59° 259° (W) 20:01:26 437.475
BEESAT 3 20 Sep 20:00:51 20:02:46 13° 109° (ESE) 20:04:43 437.485
UWE-3 20 Sep 20:01:05 20:05:13 53° 73° (ENE) 20:09:30 435.000/436.395/437.385
AAUSAT CUBESAT 2 20 Sep 20:04:44 20:08:47 51° 74° (ENE) 20:12:50 437.432
XW-2A 20 Sep 20:23:15 20:26:34 50° 260° (W) 20:29:55 145.665 - 145.685
STARS 20 Sep 20:23:37 20:26:13 16° 298° (WNW) 20:28:49 437.465
NO-84 20 Sep 20:27:36 20:30:02 21° 26° (NNE) 20:32:22 435.350 FM
HO-68 20 Sep 20:39:46 20:46:03 33° 264° (W) 20:52:24 435.675
AO-73 20 Sep 20:55:23 20:59:41 82° 259° (W) 21:04:08 145.935
ZACube-1 20 Sep 20:56:12 21:00:29 71° 259° (W) 21:04:54 437.345
Oscar 11 20 Sep 20:58:24 21:02:45 78° 75° (ENE) 21:07:08 .
STRAND 1 20 Sep 21:06:24 21:11:32 71° 287° (WNW) 21:16:39 437.568
SEEDS 20 Sep 21:09:18 21:11:44 15° 269° (W) 21:14:10 437.485
nSIGHT-1 20 Sep 21:21:15 21:22:32 12° 131° (SE) 21:23:50 .
CUBEBUG 2 20 Sep 21:26:55 21:28:17 11° 272° (W) 21:29:40 437.445
Tancredo 1 20 Sep 21:33:40 21:36:22 89° 318° (NW) 21:39:05 437.200
BEESAT 2 20 Sep 21:35:31 21:39:18 42° 117° (ESE) 21:43:08 435.950
BEESAT 3 20 Sep 21:35:52 21:39:50 60° 306° (NW) 21:43:51 437.485
AO-85 20 Sep 21:37:44 21:41:28 47° 119° (ESE) 21:45:15 145.980
UWE-3 20 Sep 21:39:43 21:42:02 14° 270° (W) 21:44:23 435.000/436.395/437.385
AAUSAT CUBESAT 2 20 Sep 21:42:21 21:44:32 14° 270° (W) 21:46:43 437.432
EO-88 20 Sep 21:49:34 21:52:53 33° 71° (ENE) 21:56:14 145.990 - 145.960
YUBILEINY 20 Sep 22:00:42 22:02:34 11° 51° (NE) 22:04:25 435.215
FO-29 20 Sep 22:02:56 22:08:08 47° 100° (E) 22:13:50 435.910
DELFI C3 20 Sep 22:03:53 22:07:51 85° 260° (W) 22:11:49 145.870
NO-84 20 Sep 22:04:44 22:07:31 40° 226° (SW) 22:10:11 435.350 FM
UNISAT 6 20 Sep 22:04:59 22:08:02 17° 91° (E) 22:11:05 437.425
ISS 20 Sep 22:09:50 22:12:48 32° 138° (SE) 22:15:46 437.550
Max Valier Satellite 20 Sep 22:14:37 22:18:19 85° 257° (WSW) 22:22:04 145.860
PRISM 20 Sep 22:28:14 22:30:07 13° 91° (E) 22:31:59 437.425
TIGRISAT 20 Sep 22:28:55 22:32:53 27° 95° (E) 22:36:52 435.000
ESTCUBE 1 20 Sep 22:38:09 22:40:55 16° 63° (ENE) 22:43:41 437.505/2401.250
PCSat 20 Sep 22:42:51 22:43:35 10° 30° (NNE) 22:44:18 145.827
STRAND 1 20 Sep 22:49:31 22:49:46 10° 304° (NW) 22:50:00 437.568
nSIGHT-1 20 Sep 22:55:11 22:58:24 85° 321° (NW) 23:01:40 .
LO-87 20 Sep 22:56:48 22:59:50 27° 70° (ENE) 23:02:52 145.935 - 145.965
SO-50 20 Sep 23:01:29 23:05:18 25° 43° (NE) 23:09:08 436.795
Tancredo 1 20 Sep 23:09:14 23:11:15 18° 345° (NNW) 23:13:15 437.200
BEESAT 2 20 Sep 23:14:00 23:17:12 22° 316° (NW) 23:20:27 435.950
BEESAT 3 20 Sep 23:17:39 23:18:13 10° 326° (NW) 23:18:49 437.485
AO-85 20 Sep 23:19:16 23:22:06 19° 318° (NW) 23:24:59 145.980
EO-88 20 Sep 23:24:19 23:26:39 16° 267° (W) 23:29:00 145.990 - 145.960
UNISAT 6 20 Sep 23:40:29 23:45:00 52° 288° (WNW) 23:49:33 437.425
SPROUT 20 Sep 23:44:46 23:47:42 19° 65° (ENE) 23:50:39 437.525
ISS 20 Sep 23:46:08 23:49:14 38° 336° (NNW) 23:52:21 437.550
FO-29 20 Sep 23:48:46 23:53:03 25° 295° (WNW) 23:57:37 435.910
QB50P2 20 Sep 23:51:54 23:53:00 11° 89° (E) 23:54:05 145.880/145.840
YUBILEINY 20 Sep 23:53:14 00:01:46 54° 76° (ENE) 00:10:16 435.215
PRISM 21 Sep 00:01:44 00:05:42 52° 287° (WNW) 00:09:38 437.425
TIGRISAT 21 Sep 00:05:24 00:09:33 33° 291° (WNW) 00:13:43 435.000
ESTCUBE 1 21 Sep 00:12:47 00:17:15 57° 259° (W) 00:21:44 437.505/2401.250
PCSat 21 Sep 00:23:18 00:28:29 43° 52° (NE) 00:33:37 145.827
AIST 2D 21 Sep 00:24:08 00:27:39 61° 100° (E) 00:31:06 435.315
NANOSAT C BR1 21 Sep 00:28:42 00:32:06 23° 94° (E) 00:35:29 145.865
LO-87 21 Sep 00:30:47 00:33:16 18° 266° (W) 00:35:46 145.935 - 145.965
nSIGHT-1 21 Sep 00:32:28 00:35:06 22° 345° (NNW) 00:37:46 .
DX 1 21 Sep 00:40:26 00:43:05 16° 63° (ENE) 00:45:42 434.975-435.025
SO-50 21 Sep 00:41:34 00:45:58 47° 242° (WSW) 00:50:24 436.795
UKube-1 21 Sep 00:42:02 00:42:57 11° 59° (ENE) 00:43:52 .
Tancredo 1 21 Sep 00:45:01 00:46:34 14° 5° (N) 00:48:07 437.200
VELOX 1 21 Sep 00:55:35 00:59:59 80° 75° (ENE) 01:04:24 145.980
DUCHIFAT 1 21 Sep 00:58:29 01:02:32 42° 99° (E) 01:06:34 145.980
50 SAT 21 Sep 00:59:56 01:02:39 24° 70° (ENE) 01:05:23 437.505
POLYITAN 1 21 Sep 01:07:15 01:11:32 68° 102° (ESE) 01:15:48 437.675
EO-79 21 Sep 01:12:28 01:16:46 78° 104° (ESE) 01:21:02 145.935-145.965
SPROUT 21 Sep 01:19:17 01:23:17 41° 262° (W) 01:27:20 437.525
ISS 21 Sep 01:23:58 01:26:22 18° 356° (N) 01:28:46 437.550
QB50P2 21 Sep 01:24:57 01:29:14 69° 285° (WNW) 01:33:29 145.880/145.840
BUGSAT 1 21 Sep 01:46:19 01:50:14 37° 98° (E) 01:54:09 437.445
Oscar 19 21 Sep 01:47:15 01:51:00 20° 92° (E) 01:54:44 437.125/150
YUBILEINY 21 Sep 01:50:37 01:58:09 34° 276° (W) 02:05:43 435.215
M-CUBED/EXP-1 PRIME 21 Sep 01:58:59 02:02:19 60° 106° (ESE) 02:05:32 437.505
NANOSAT C BR1 21 Sep 02:04:01 02:07:50 32° 291° (WNW) 02:11:38 145.865
PCSat 21 Sep 02:07:02 02:11:42 30° 251° (WSW) 02:16:20 145.827
nSIGHT-1 21 Sep 02:09:52 02:12:15 18° 6° (N) 02:14:38 .
UKube-1 21 Sep 02:14:00 02:18:18 84° 258° (WSW) 02:22:38 .
DX 1 21 Sep 02:14:35 02:18:50 53° 259° (W) 02:23:05 434.975-435.025
Tancredo 1 21 Sep 02:19:15 02:21:44 31° 24° (NNE) 02:24:13 437.200
50 SAT 21 Sep 02:32:47 02:35:08 18° 266° (W) 02:37:30 437.505
DUCHIFAT 1 21 Sep 02:34:55 02:37:52 19° 295° (WNW) 02:40:50 145.980
POLYITAN 1 21 Sep 02:44:54 02:46:45 13° 299° (WNW) 02:48:36 437.675
Gurwin Techsat 1B 21 Sep 02:46:04 02:51:13 47° 99° (E) 02:56:19 435.225
EO-79 21 Sep 02:50:40 02:51:53 11° 299° (WNW) 02:53:05 145.935-145.965
MOZHAYETS 4 21 Sep 02:52:36 02:56:34 29° 67° (ENE) 03:00:34
ITUPSAT 1 21 Sep 02:52:47 02:56:58 31° 67° (ENE) 03:01:11 437.325
O/OREOS (USA 219) 21 Sep 02:57:02 03:00:55 29° 104° (ESE) 03:04:51 437.305
ISS 21 Sep 03:00:53 03:03:38 24° 16° (NNE) 03:06:24 437.550
CUBESAT XI-V 21 Sep 03:13:43 03:15:11 11° 59° (ENE) 03:16:39 437.345
BUGSAT 1 21 Sep 03:22:15 03:25:19 20° 294° (WNW) 03:28:25 437.445
Oscar 19 21 Sep 03:25:36 03:30:38 52° 289° (WNW) 03:35:36 437.125/150
BEESAT 21 Sep 03:30:52 03:35:37 75° 74° (ENE) 03:40:24 436.000
nSIGHT-1 21 Sep 03:46:04 03:49:12 41° 26° (NNE) 03:52:19 .
AO-7 21 Sep 03:52:46 03:59:56 31° 96° (E) 04:07:01 .
Tancredo 1 21 Sep 03:53:52 03:56:15 28° 221° (SW) 03:58:38 437.200
BEESAT 3 21 Sep 04:15:20 04:17:34 14° 38° (NE) 04:19:47 437.485
ITAMSAT 1 21 Sep 04:23:51 04:28:42 38° 98° (E) 04:33:32 435.822/435.867
Gurwin Techsat 1B 21 Sep 04:26:39 04:30:51 24° 297° (WNW) 04:35:03 435.225
AO-85 21 Sep 04:28:56 04:30:02 11° 34° (NE) 04:31:09 145.980
MOZHAYETS 4 21 Sep 04:29:36 04:33:39 30° 264° (W) 04:37:43
ITUPSAT 1 21 Sep 04:30:37 04:34:45 29° 264° (W) 04:38:56 437.325
O/OREOS (USA 219) 21 Sep 04:36:21 04:40:17 29° 302° (WNW) 04:44:15 437.305
ISS 21 Sep 04:37:07 04:40:26 83° 214° (SW) 04:43:43 437.550
CUBESAT XI-V 21 Sep 04:47:06 04:51:49 89° 261° (W) 04:56:33 437.345
KKS-1 21 Sep 05:10:23 05:14:44 61° 73° (ENE) 05:19:06 437.445
BEESAT 21 Sep 05:12:07 05:13:55 12° 271° (W) 05:15:43 436.000
nSIGHT-1 21 Sep 05:22:35 05:25:26 28° 223° (SW) 05:28:16 .
STARS 21 Sep 05:43:08 05:47:23 55° 72° (ENE) 05:51:39 437.465
AO-7 21 Sep 05:44:59 05:53:06 61° 295° (WNW) 06:01:12 .
DOVE 4 21 Sep 05:47:07 05:50:30 23° 95° (E) 05:53:59 437.250
BEESAT 3 21 Sep 05:51:40 05:55:39 79° 238° (WSW) 05:59:34 437.485
BEESAT 2 21 Sep 05:52:07 05:55:53 35° 49° (NE) 05:59:36 435.950
RS-15 21 Sep 05:52:09 06:03:47 53° 111° (ESE) 06:15:29 29.354- 29.394
ITAMSAT 1 21 Sep 06:03:36 06:08:01 28° 295° (WNW) 06:12:24 435.822/435.867
AO-85 21 Sep 06:06:57 06:11:18 57° 54° (NE) 06:15:58 145.980
XW-2B 21 Sep 06:12:26 06:12:57 10° 89° (E) 06:13:29 145.730 - 145.750
XW-2F 21 Sep 06:14:42 06:15:20 10° 89° (E) 06:15:58 145.980 - 146.000
ISS 21 Sep 06:15:44 06:16:24 10° 230° (SW) 06:17:03 437.550
XW-2C 21 Sep 06:31:39 06:34:22 18° 93° (E) 06:37:04 145.795 - 145.815
LilacSat-2 21 Sep 06:40:04 06:43:17 25° 95° (E) 06:46:27 437.200
STRAND 1 21 Sep 06:45:23 06:49:24 24° 64° (ENE) 06:53:26 437.568
NUDT-PHONESAT 21 Sep 06:45:49 06:48:32 19° 93° (E) 06:51:14 437.300
KKS-1 21 Sep 06:49:35 06:51:40 13° 269° (W) 06:53:46 437.445
KAITUO 1B 21 Sep 07:09:04 07:12:36 37° 98° (E) 07:16:04 145.475/437.950
STARS 21 Sep 07:21:46 07:24:04 14° 269° (W) 07:26:21 437.465
DOVE 4 21 Sep 07:24:32 07:28:14 31° 290° (WNW) 07:32:01 437.250
BEESAT 2 21 Sep 07:30:13 07:33:27 23° 247° (WSW) 07:36:39 435.950
CUTE-I 21 Sep 07:30:29 07:35:47 65° 102° (ESE) 07:41:04 437.470
XW-2D 21 Sep 07:31:25 07:35:15 79° 283° (WNW) 07:39:02 145.860 - 145.880
CUTE 1.7 + AOD 2 21 Sep 07:37:23 07:40:41 22° 93° (E) 07:43:57 437.475
CUBEBUG 2 21 Sep 07:37:51 07:40:24 14° 90° (E) 07:42:56 437.445
AO-7 21 Sep 07:39:54 07:44:15 16° 316° (NW) 07:48:35 .
XW-2B 21 Sep 07:43:44 07:47:30 58° 286° (WNW) 07:51:14 145.730 - 145.750
XW-2F 21 Sep 07:46:04 07:49:48 56° 286° (WNW) 07:53:30 145.980 - 146.000
AO-85 21 Sep 07:48:19 07:51:22 18° 248° (WSW) 07:54:34 145.980
UWE-3 21 Sep 07:51:44 07:53:10 11° 88° (E) 07:54:36 435.000/436.395/437.385
RS-15 21 Sep 08:04:19 08:16:22 56° 315° (NW) 08:28:25 29.354- 29.394
HO-68 21 Sep 08:05:11 08:12:07 48° 100° (E) 08:19:00 435.675
XW-2C 21 Sep 08:05:12 08:08:37 31° 290° (WNW) 08:12:00 145.795 - 145.815
LilacSat-2 21 Sep 08:14:19 08:17:28 24° 292° (WNW) 08:20:34 437.200
FO-29 21 Sep 08:17:55 08:22:08 22° 64° (ENE) 08:26:08 435.910
NUDT-PHONESAT 21 Sep 08:19:09 08:22:26 29° 290° (WNW) 08:25:41 437.300
STRAND 1 21 Sep 08:23:27 08:28:17 45° 261° (W) 08:33:12 437.568
AO-73 21 Sep 08:43:02 08:46:20 19° 92° (E) 08:49:35 145.935
KAITUO 1B 21 Sep 08:43:55 08:46:16 16° 294° (WNW) 08:48:36 145.475/437.950
ZACube-1 21 Sep 08:43:56 08:47:31 22° 93° (E) 08:51:04 437.345
Oscar 11 21 Sep 08:46:16 08:48:26 13° 90° (E) 08:50:35 .
SEEDS 21 Sep 08:49:47 08:54:00 87° 107° (ESE) 08:58:10 437.485
UNISAT 6 21 Sep 09:05:15 09:07:54 16° 63° (ENE) 09:10:37 437.425
CUTE-I 21 Sep 09:11:44 09:15:18 19° 299° (WNW) 09:18:52 437.470
CUBEBUG 2 21 Sep 09:12:45 09:17:23 63° 286° (WNW) 09:22:04 437.445
CUTE 1.7 + AOD 2 21 Sep 09:12:45 09:16:34 33° 290° (WNW) 09:20:21 437.475
XW-2A 21 Sep 09:16:23 09:19:47 54° 285° (WNW) 09:23:07 145.665 - 145.685
PRISM 21 Sep 09:19:07 09:20:35 12° 61° (ENE) 09:22:03 437.425
AAUSAT CUBESAT 2 21 Sep 09:20:55 09:25:03 86° 103° (ESE) 09:29:09 437.432
UWE-3 21 Sep 09:25:27 09:30:07 78° 284° (WNW) 09:34:47 435.000/436.395/437.385
TIGRISAT 21 Sep 09:28:42 09:32:14 25° 67° (ENE) 09:35:50 435.000
DELFI C3 21 Sep 09:42:07 09:43:08 11° 90° (E) 09:44:08 145.870
HO-68 21 Sep 09:53:14 09:59:38 36° 298° (WNW) 10:06:02 435.675
FO-29 21 Sep 10:01:16 10:06:58 53° 259° (W) 10:12:12 435.910
AO-73 21 Sep 10:18:23 10:22:45 44° 288° (WNW) 10:27:04 145.935
ZACube-1 21 Sep 10:19:37 10:23:53 39° 290° (WNW) 10:28:08 437.345
Oscar 11 21 Sep 10:20:39 10:24:55 57° 286° (WNW) 10:29:09 .
RS-15 21 Sep 10:22:23 10:32:27 28° 346° (NNW) 10:42:20 29.354- 29.394
UNISAT 6 21 Sep 10:39:58 10:44:10 52° 260° (W) 10:48:30 437.425
QB50P2 21 Sep 10:46:59 10:47:00 10° 60° (ENE) 10:47:01 145.880/145.840
EO-88 21 Sep 10:50:28 10:53:55 38° 98° (E) 10:57:20 145.990 - 145.960
PRISM 21 Sep 10:51:13 10:55:18 68° 258° (WSW) 10:59:24 437.425
AIST 2D 21 Sep 10:59:18 11:02:15 25° 70° (ENE) 11:05:13 435.315
TIGRISAT 21 Sep 11:04:57 11:08:47 31° 264° (W) 11:12:43 435.000
YUBILEINY 21 Sep 11:08:04 11:08:40 10° 71° (ENE) 11:09:16 435.215
M-CUBED/EXP-1 PRIME 21 Sep 11:13:55 11:14:56 11° 57° (ENE) 11:15:56 437.505
DELFI C3 21 Sep 11:14:23 11:18:14 57° 286° (WNW) 11:22:04 145.870
Max Valier Satellite 21 Sep 11:17:10 11:20:54 69° 285° (WNW) 11:24:37 145.860
NANOSAT C BR1 21 Sep 11:21:53 11:24:54 20° 65° (ENE) 11:27:56 145.865
DUCHIFAT 1 21 Sep 11:50:56 11:54:42 34° 69° (ENE) 11:58:30 145.980
LO-87 21 Sep 11:55:30 11:58:42 29° 97° (E) 12:01:53 145.935 - 145.965
POLYITAN 1 21 Sep 12:00:16 12:04:22 55° 73° (ENE) 12:08:31 437.675
ESTCUBE 1 21 Sep 12:04:32 12:08:23 27° 95° (E) 12:12:12 437.505/2401.250
EO-79 21 Sep 12:05:18 12:09:26 63° 74° (ENE) 12:13:37 145.935-145.965
QB50P2 21 Sep 12:17:53 12:22:05 84° 254° (WSW) 12:26:21 145.880/145.840
EO-88 21 Sep 12:25:05 12:27:14 15° 295° (WNW) 12:29:24 145.990 - 145.960
Gurwin Techsat 1B 21 Sep 12:32:07 12:34:12 12° 56° (ENE) 12:36:17 435.225
AIST 2D 21 Sep 12:32:43 12:35:24 20° 266° (W) 12:38:07 435.315
BUGSAT 1 21 Sep 12:36:56 12:40:24 28° 68° (ENE) 12:43:54 437.445
RS-15 21 Sep 12:39:42 12:50:09 31° 22° (NNE) 13:00:09 29.354- 29.394
M-CUBED/EXP-1 PRIME 21 Sep 12:44:27 12:48:50 86° 247° (WSW) 12:52:56 437.505
VELOX 1 21 Sep 12:46:08 12:48:21 14° 91° (E) 12:50:34 145.980
YUBILEINY 21 Sep 12:54:59 13:03:28 60° 91° (E) 13:11:58 435.215
NANOSAT C BR1 21 Sep 12:56:26 13:00:20 38° 262° (W) 13:04:17 145.865
SPROUT 21 Sep 13:03:49 13:07:33 29° 96° (E) 13:11:18 437.525
Oscar 19 21 Sep 13:04:36 13:09:12 33° 67° (ENE) 13:13:50 437.125/150
O/OREOS (USA 219) 21 Sep 13:05:20 13:09:57 68° 66° (ENE) 13:14:31 437.305
AO-7 21 Sep 13:06:50 13:09:35 12° 40° (NE) 13:12:22 .
